sat.trackr.live / text

‹ back to catalog

TIANQI-25

NORAD 59909 · 2024-102A

PAYLOAD ACTIVE UNKNOWN

§ Identity

Operator
Country
PRC
Launch date
2024-05-29
Launch site
YSLA
Launch vehicle
Mass (kg)
RCS (m²)

External: N2YO · Heavens-Above · Gunter

§ Orbital elements

Epoch: 2026-05-25T02:31:53.075424Z

Period
102.92 min
Inclination
44.9786°
Eccentricity
0.0010798
Mean motion
13.99161526 rev/d
Perigee alt
888.8 km
Apogee alt
904.6 km
Semi-major
7,274.8 km
B*
1.3294e-4
RAAN
4.6558°
Arg perigee
129.4694°
Mean anomaly
230.7095°
Rev number
10,167

§ Raw data

TIANQI-251 59909U 24102A   26145.10547541  .00000065  00000+0  13294-3 0  99982 59909  44.9786   4.6558 0010798 129.4694 230.7095 13.99161526101674

JSON: /api/v1/satellites/59909 · /tle

For live sub-satellite position, see the globe view (requires WebGL).

§ Visibility from observer

Set your observer location to see the next 7 days of passes ≥ 10°. The values pass through the URL so the page stays shareable.

No JS? Fill the form by hand. The geolocation button needs JavaScript.